DAL82B KDTW-KDFW

Flight info

Callsign DAL82B
Flight time 2h 21m
Altitude 34000
Route SNDRS3 BGHRT STL RZC FSM RRNET SEEVR4
Aircraft A321/M-SDE3FGHIRWY/LB1

Departure

Time 2026-05-04 11:12
Airport Detroit Metropolitan Wayne County Airport (KDTW)

Arrival

Time 2026-05-04 13:33
Airport Dallas Fort Worth International Airport (KDFW)
Time Latitude Longitude Altitude Speed Heading
2026-05-04 10:46 42.21099 -83.35683 648 ft 0 kts 119°
2026-05-04 11:01 42.21108 -83.35794 647 ft 0 kts 28°
2026-05-04 11:05 42.21553 -83.35127 647 ft 21 kts 82°
2026-05-04 11:06 42.21642 -83.34973 647 ft 22 kts 43°
2026-05-04 11:06 42.21782 -83.34796 650 ft 27 kts 42°
2026-05-04 11:06 42.21838 -83.34597 648 ft 22 kts 89°
2026-05-04 11:06 42.21958 -83.34425 647 ft 34 kts 28°
2026-05-04 11:08 42.22751 -83.33674 646 ft 0 kts 208°
2026-05-04 11:10 42.21299 -83.34738 669 ft 158 kts 208°
2026-05-04 11:12 42.13228 -83.38619 3141 ft 241 kts 200°
2026-05-04 11:12 42.11558 -83.39254 3565 ft 255 kts 200°
2026-05-04 11:12 42.09854 -83.39891 4260 ft 259 kts 199°
2026-05-04 11:12 42.08089 -83.40557 4995 ft 261 kts 202°
2026-05-04 11:13 42.06519 -83.41672 5695 ft 258 kts 219°
2026-05-04 11:13 42.05064 -83.43096 6426 ft 260 kts 219°
2026-05-04 11:13 42.03601 -83.44538 7106 ft 262 kts 220°
2026-05-04 11:13 42.02118 -83.45998 7767 ft 266 kts 220°
2026-05-04 11:14 42.00615 -83.47474 8414 ft 269 kts 220°
2026-05-04 11:14 41.99092 -83.48966 9087 ft 273 kts 220°
2026-05-04 11:14 41.97561 -83.50496 9719 ft 276 kts 221°
2026-05-04 11:16 41.85244 -83.63261 12664 ft 345 kts 221°
2026-05-04 11:16 41.83327 -83.65220 13273 ft 348 kts 221°
2026-05-04 11:16 41.81395 -83.67197 13849 ft 351 kts 221°
2026-05-04 11:17 41.79449 -83.69195 14356 ft 354 kts 221°
2026-05-04 11:17 41.77483 -83.71214 14869 ft 358 kts 221°
2026-05-04 11:19 41.62708 -83.84770 18432 ft 381 kts 216°
2026-05-04 11:19 41.60428 -83.86594 18834 ft 383 kts 216°
2026-05-04 11:19 41.58127 -83.88436 19238 ft 386 kts 216°
2026-05-04 11:19 41.55814 -83.90292 19659 ft 389 kts 216°
2026-05-04 11:20 41.53488 -83.92160 20055 ft 391 kts 216°
2026-05-04 11:20 41.51148 -83.94038 20480 ft 394 kts 216°
2026-05-04 11:20 41.48794 -83.95924 20902 ft 396 kts 216°
2026-05-04 11:20 41.46425 -83.97819 21318 ft 398 kts 216°
2026-05-04 11:22 41.30233 -84.10697 23830 ft 415 kts 216°
2026-05-04 11:22 41.27855 -84.12849 24146 ft 412 kts 224°
2026-05-04 11:23 41.25808 -84.15480 24454 ft 408 kts 234°
2026-05-04 11:23 41.24144 -84.18509 24768 ft 405 kts 244°
2026-05-04 11:24 41.17693 -84.39301 26559 ft 412 kts 252°
2026-05-04 11:25 41.16624 -84.42847 26858 ft 414 kts 252°
2026-05-04 11:25 41.15553 -84.46405 27148 ft 416 kts 252°
2026-05-04 11:25 41.14476 -84.49978 27439 ft 418 kts 252°
2026-05-04 11:26 41.12305 -84.57167 28010 ft 422 kts 252°
2026-05-04 11:27 41.06944 -84.83533 29835 ft 430 kts 260°
2026-05-04 11:28 41.06286 -84.87393 30160 ft 429 kts 261°
2026-05-04 11:28 41.05631 -84.91239 30506 ft 427 kts 261°
2026-05-04 11:28 41.04976 -84.95083 30833 ft 426 kts 261°
2026-05-04 11:28 41.04322 -84.98905 31171 ft 425 kts 261°
2026-05-04 11:29 41.03666 -85.02727 31508 ft 424 kts 261°
2026-05-04 11:29 41.03014 -85.06526 31831 ft 423 kts 260°
2026-05-04 11:29 41.02363 -85.10319 32147 ft 421 kts 260°
2026-05-04 11:29 41.01717 -85.14084 32567 ft 418 kts 260°
2026-05-04 11:31 40.97254 -85.39785 33833 ft 404 kts 260°
2026-05-04 11:33 40.92820 -85.65025 33831 ft 402 kts 260°
2026-05-04 11:33 40.91542 -85.72220 33835 ft 402 kts 259°
2026-05-04 11:34 40.90262 -85.79429 33831 ft 402 kts 259°
2026-05-04 11:34 40.88969 -85.86635 33827 ft 403 kts 259°
2026-05-04 11:35 40.87990 -85.93889 33831 ft 401 kts 264°
2026-05-04 11:35 40.87219 -86.01137 33825 ft 401 kts 264°
2026-05-04 11:36 40.86439 -86.08468 33828 ft 401 kts 264°
2026-05-04 11:36 40.85656 -86.15754 33828 ft 401 kts 264°
2026-05-04 11:37 40.84866 -86.23004 33809 ft 401 kts 264°
2026-05-04 11:37 40.84069 -86.30293 33812 ft 401 kts 264°
2026-05-04 11:38 40.83274 -86.37579 33825 ft 401 kts 264°
2026-05-04 11:38 40.82467 -86.44861 33828 ft 401 kts 264°
2026-05-04 11:39 40.81658 -86.52149 33823 ft 401 kts 264°
2026-05-04 11:41 40.78771 -86.77644 33808 ft 402 kts 264°
2026-05-04 11:41 40.77938 -86.84937 33808 ft 402 kts 264°
2026-05-04 11:42 40.77105 -86.92239 33813 ft 402 kts 264°
2026-05-04 11:42 40.76267 -86.99531 33801 ft 402 kts 263°
2026-05-04 11:43 40.75421 -87.06828 33797 ft 403 kts 263°
2026-05-04 11:43 40.74572 -87.14103 33791 ft 403 kts 263°
2026-05-04 11:44 40.73704 -87.21461 33794 ft 404 kts 263°
2026-05-04 11:44 40.72836 -87.28775 33788 ft 404 kts 263°
2026-05-04 11:45 40.71969 -87.36098 33775 ft 404 kts 263°
2026-05-04 11:45 40.71103 -87.43377 33774 ft 405 kts 263°
2026-05-04 11:46 40.70224 -87.50710 33782 ft 405 kts 263°
2026-05-04 11:46 40.69336 -87.58048 33779 ft 406 kts 263°
2026-05-04 11:47 40.68444 -87.65389 33784 ft 406 kts 263°
2026-05-04 11:47 40.67547 -87.72731 33775 ft 406 kts 263°
2026-05-04 11:48 40.66643 -87.80086 33769 ft 407 kts 263°
2026-05-04 11:48 40.65723 -87.87450 33774 ft 407 kts 262°
2026-05-04 11:49 40.63796 -87.94485 33771 ft 414 kts 243°
2026-05-04 11:49 40.60198 -88.00478 33776 ft 420 kts 232°
2026-05-04 11:50 40.56304 -88.06216 33775 ft 421 kts 232°
2026-05-04 11:50 40.52410 -88.11962 33774 ft 421 kts 232°
2026-05-04 11:51 40.48515 -88.17716 33796 ft 422 kts 232°
2026-05-04 11:51 40.44618 -88.23476 33791 ft 422 kts 232°
2026-05-04 11:52 40.40702 -88.29229 33800 ft 422 kts 232°
2026-05-04 11:52 40.36777 -88.34963 33803 ft 422 kts 232°
2026-05-04 11:53 40.32878 -88.40662 33803 ft 422 kts 232°
2026-05-04 11:53 40.28936 -88.46445 33802 ft 422 kts 232°
2026-05-04 11:55 40.13297 -88.69202 33815 ft 419 kts 233°
2026-05-04 11:56 40.09400 -88.74842 33813 ft 418 kts 232°
2026-05-04 11:56 40.05499 -88.80475 33823 ft 417 kts 232°
2026-05-04 11:57 40.01604 -88.86088 33800 ft 417 kts 234°
2026-05-04 11:57 39.97728 -88.91667 33844 ft 413 kts 234°
2026-05-04 11:58 39.93876 -88.97207 33850 ft 411 kts 234°
2026-05-04 11:58 39.90044 -89.02703 33855 ft 409 kts 234°
2026-05-04 11:59 39.86225 -89.08177 33805 ft 408 kts 234°
2026-05-04 11:59 39.82408 -89.13633 33810 ft 407 kts 234°
2026-05-04 12:00 39.78592 -89.19071 33818 ft 406 kts 235°
2026-05-04 12:00 39.74793 -89.24477 33828 ft 403 kts 235°
2026-05-04 12:01 39.71045 -89.29797 33843 ft 401 kts 235°
2026-05-04 12:02 39.57938 -89.48386 33840 ft 398 kts 235°
2026-05-04 12:03 39.54197 -89.53672 33814 ft 398 kts 236°
2026-05-04 12:03 39.50452 -89.58951 33811 ft 398 kts 236°
2026-05-04 12:04 39.46697 -89.64218 33808 ft 398 kts 236°
2026-05-04 12:04 39.42941 -89.69482 33803 ft 398 kts 236°
2026-05-04 12:05 39.39821 -89.73856 33793 ft 398 kts 236°
2026-05-04 12:05 39.36069 -89.79120 33795 ft 398 kts 236°
2026-05-04 12:06 39.32311 -89.84368 33773 ft 398 kts 236°
2026-05-04 12:06 39.28539 -89.89621 33786 ft 399 kts 236°
2026-05-04 12:07 39.24756 -89.94888 33788 ft 400 kts 236°
2026-05-04 12:07 39.20963 -90.00162 33795 ft 401 kts 235°
2026-05-04 12:08 39.17167 -90.05431 33809 ft 401 kts 235°
2026-05-04 12:08 39.13364 -90.10702 33821 ft 402 kts 235°
2026-05-04 12:09 39.09551 -90.15964 33816 ft 402 kts 234°
2026-05-04 12:09 39.05737 -90.21225 33827 ft 401 kts 234°
2026-05-04 12:10 39.01934 -90.26478 33830 ft 401 kts 234°
2026-05-04 12:10 38.98127 -90.31719 33841 ft 401 kts 234°
2026-05-04 12:11 38.94306 -90.36955 33844 ft 401 kts 234°
2026-05-04 12:11 38.90521 -90.42143 33842 ft 401 kts 234°
2026-05-04 12:12 38.86683 -90.47400 33830 ft 400 kts 234°
2026-05-04 12:12 38.82969 -90.52631 33856 ft 397 kts 236°
2026-05-04 12:14 38.68546 -90.73964 33852 ft 395 kts 236°
2026-05-04 12:15 38.64924 -90.79250 33845 ft 395 kts 236°
2026-05-04 12:15 38.61295 -90.84541 33830 ft 396 kts 236°
2026-05-04 12:16 38.57661 -90.89836 33830 ft 396 kts 236°
2026-05-04 12:16 38.54025 -90.95133 33850 ft 397 kts 236°
2026-05-04 12:17 38.50373 -91.00429 33852 ft 397 kts 236°
2026-05-04 12:17 38.46720 -91.05717 33845 ft 397 kts 236°
2026-05-04 12:18 38.43067 -91.11007 33844 ft 397 kts 236°
2026-05-04 12:18 38.39410 -91.16290 33857 ft 398 kts 235°
2026-05-04 12:19 38.35740 -91.21580 33874 ft 399 kts 235°
2026-05-04 12:19 38.32057 -91.26879 33880 ft 399 kts 235°
2026-05-04 12:20 38.28374 -91.32178 33883 ft 400 kts 235°
2026-05-04 12:20 38.24682 -91.37469 33875 ft 400 kts 235°
2026-05-04 12:21 38.21013 -91.42714 33864 ft 400 kts 235°
2026-05-04 12:21 38.17290 -91.48033 33801 ft 400 kts 235°
2026-05-04 12:22 38.13619 -91.53283 33792 ft 401 kts 235°
2026-05-04 12:22 38.09880 -91.58612 33803 ft 402 kts 234°
2026-05-04 12:23 38.06157 -91.63907 33813 ft 403 kts 234°
2026-05-04 12:23 38.02427 -91.69214 33813 ft 403 kts 234°
2026-05-04 12:24 37.98686 -91.74521 33820 ft 403 kts 234°
2026-05-04 12:24 37.94944 -91.79819 33822 ft 403 kts 234°
2026-05-04 12:25 37.91198 -91.85109 33807 ft 404 kts 234°
2026-05-04 12:25 37.87468 -91.90368 33826 ft 403 kts 234°
2026-05-04 12:26 37.83720 -91.95653 33821 ft 403 kts 234°
2026-05-04 12:26 37.79960 -92.00941 33828 ft 404 kts 234°
2026-05-04 12:27 37.76200 -92.06213 33833 ft 404 kts 234°
2026-05-04 12:27 37.72442 -92.11489 33836 ft 404 kts 234°
2026-05-04 12:28 37.68673 -92.16756 33817 ft 404 kts 234°
2026-05-04 12:28 37.64897 -92.22026 33826 ft 405 kts 234°
2026-05-04 12:29 37.61146 -92.27261 33830 ft 405 kts 234°
2026-05-04 12:29 37.57364 -92.32523 33818 ft 405 kts 233°
2026-05-04 12:30 37.53572 -92.37800 33838 ft 405 kts 233°
2026-05-04 12:30 37.49779 -92.43061 33848 ft 406 kts 233°
2026-05-04 12:31 37.45984 -92.48322 33854 ft 406 kts 233°
2026-05-04 12:31 37.42187 -92.53585 33844 ft 407 kts 233°
2026-05-04 12:32 37.36463 -92.61489 33847 ft 408 kts 233°
2026-05-04 12:33 37.32641 -92.66754 33848 ft 408 kts 233°
2026-05-04 12:33 37.28837 -92.71988 33843 ft 408 kts 233°
2026-05-04 12:34 37.24997 -92.77263 33848 ft 409 kts 233°
2026-05-04 12:34 37.21147 -92.82533 33851 ft 410 kts 233°
2026-05-04 12:35 37.17288 -92.87808 33842 ft 410 kts 233°
2026-05-04 12:35 37.13432 -92.93083 33847 ft 410 kts 233°
2026-05-04 12:36 37.09572 -92.98358 33860 ft 411 kts 233°
2026-05-04 12:36 37.05701 -93.03631 33864 ft 411 kts 233°
2026-05-04 12:37 37.01858 -93.08869 33849 ft 411 kts 233°
2026-05-04 12:37 36.97980 -93.14132 33855 ft 411 kts 232°
2026-05-04 12:38 36.94097 -93.19385 33864 ft 411 kts 232°
2026-05-04 12:38 36.90219 -93.24633 33875 ft 411 kts 232°
2026-05-04 12:39 36.86330 -93.29882 33888 ft 411 kts 232°
2026-05-04 12:39 36.82445 -93.35127 33905 ft 411 kts 232°
2026-05-04 12:40 36.78569 -93.40366 33908 ft 411 kts 232°
2026-05-04 12:40 36.74677 -93.45598 33912 ft 411 kts 232°
2026-05-04 12:41 36.70777 -93.50827 33916 ft 411 kts 232°
2026-05-04 12:41 36.66881 -93.56050 33892 ft 411 kts 232°
2026-05-04 12:42 36.62984 -93.61258 33901 ft 411 kts 232°
2026-05-04 12:42 36.59111 -93.66423 33890 ft 411 kts 232°
2026-05-04 12:43 36.55212 -93.71623 33896 ft 410 kts 233°
2026-05-04 12:43 36.51325 -93.76814 33905 ft 410 kts 232°
2026-05-04 12:44 36.47424 -93.82007 33909 ft 411 kts 232°
2026-05-04 12:44 36.43519 -93.87190 33895 ft 411 kts 233°
2026-05-04 12:45 36.39611 -93.92373 33921 ft 410 kts 233°
2026-05-04 12:45 36.35706 -93.97537 33939 ft 410 kts 233°
2026-05-04 12:46 36.31803 -94.02693 33942 ft 410 kts 233°
2026-05-04 12:46 36.27890 -94.07831 33943 ft 411 kts 230°
2026-05-04 12:47 36.23054 -94.11815 33955 ft 430 kts 209°
2026-05-04 12:47 36.20163 -94.12916 33951 ft 440 kts 198°
2026-05-04 12:47 36.17156 -94.13481 33924 ft 444 kts 195°
2026-05-04 12:48 36.11037 -94.14545 33929 ft 445 kts 195°
2026-05-04 12:48 36.04906 -94.15622 33935 ft 445 kts 195°
2026-05-04 12:49 35.98767 -94.16709 33938 ft 446 kts 196°
2026-05-04 12:49 35.93619 -94.17615 33945 ft 446 kts 195°
2026-05-04 12:50 35.87506 -94.18685 33952 ft 447 kts 195°
2026-05-04 12:50 35.81359 -94.19753 33921 ft 447 kts 196°
2026-05-04 12:51 35.75205 -94.20832 33923 ft 447 kts 196°
2026-05-04 12:51 35.69036 -94.21915 33924 ft 448 kts 196°
2026-05-04 12:52 35.62865 -94.22993 33910 ft 448 kts 197°
2026-05-04 12:52 35.56676 -94.24066 33922 ft 449 kts 197°
2026-05-04 12:53 35.50485 -94.25136 33932 ft 449 kts 197°
2026-05-04 12:53 35.44291 -94.26217 33939 ft 449 kts 198°
2026-05-04 12:53 35.41293 -94.27090 33909 ft 437 kts 208°
2026-05-04 12:54 35.38521 -94.28502 33913 ft 425 kts 218°
2026-05-04 12:54 35.33859 -94.32576 33924 ft 408 kts 231°
2026-05-04 12:55 35.29611 -94.37216 33935 ft 410 kts 231°
2026-05-04 12:55 35.25334 -94.41838 33935 ft 410 kts 230°
2026-05-04 12:56 35.21054 -94.46458 33941 ft 410 kts 230°
2026-05-04 12:56 35.16778 -94.51080 33934 ft 410 kts 230°
2026-05-04 12:57 35.12508 -94.55698 33934 ft 410 kts 231°
2026-05-04 12:57 35.08230 -94.60313 33959 ft 412 kts 232°
2026-05-04 12:58 35.03923 -94.64946 33966 ft 412 kts 232°
2026-05-04 12:58 34.99620 -94.69574 33940 ft 412 kts 232°
2026-05-04 12:59 34.95313 -94.74193 33933 ft 412 kts 232°
2026-05-04 12:59 34.91007 -94.78814 33945 ft 412 kts 232°
2026-05-04 13:00 34.86697 -94.83422 33918 ft 412 kts 233°
2026-05-04 13:00 34.82394 -94.88023 33932 ft 411 kts 233°
2026-05-04 13:01 34.78037 -94.92562 33939 ft 413 kts 232°
2026-05-04 13:01 34.73618 -94.97034 33927 ft 413 kts 232°
2026-05-04 13:02 34.69201 -95.01503 33934 ft 412 kts 232°
2026-05-04 13:02 34.64811 -95.05971 33933 ft 411 kts 232°
2026-05-04 13:03 34.60429 -95.10431 33942 ft 411 kts 232°
2026-05-04 13:03 34.56047 -95.14880 33955 ft 410 kts 232°
2026-05-04 13:04 34.51668 -95.19315 33962 ft 410 kts 232°
2026-05-04 13:04 34.47305 -95.23751 33964 ft 409 kts 232°
2026-05-04 13:05 34.42936 -95.28175 33964 ft 409 kts 232°
2026-05-04 13:05 34.38554 -95.32592 33969 ft 409 kts 232°
2026-05-04 13:06 34.34199 -95.36972 33948 ft 411 kts 231°
2026-05-04 13:06 34.29775 -95.41408 33962 ft 413 kts 231°
2026-05-04 13:06 34.27555 -95.43635 33828 ft 418 kts 231°
2026-05-04 13:07 34.25314 -95.45885 33555 ft 419 kts 231°
2026-05-04 13:07 34.23071 -95.48133 33294 ft 418 kts 231°
2026-05-04 13:07 34.20840 -95.50363 32901 ft 414 kts 231°
2026-05-04 13:07 34.18625 -95.52575 32333 ft 412 kts 231°
2026-05-04 13:08 34.16428 -95.54769 31786 ft 410 kts 230°
2026-05-04 13:08 34.14233 -95.56959 31244 ft 408 kts 230°
2026-05-04 13:08 34.12050 -95.59132 30709 ft 406 kts 230°
2026-05-04 13:08 34.09877 -95.61294 30175 ft 404 kts 230°
2026-05-04 13:09 34.07711 -95.63448 29544 ft 401 kts 230°
2026-05-04 13:09 34.05575 -95.65570 29046 ft 396 kts 229°
2026-05-04 13:09 34.03453 -95.67677 28529 ft 393 kts 229°
2026-05-04 13:09 34.01355 -95.69759 28019 ft 389 kts 229°
2026-05-04 13:10 33.99277 -95.71819 27517 ft 385 kts 229°
2026-05-04 13:10 33.97219 -95.73857 27030 ft 381 kts 228°
2026-05-04 13:10 33.95184 -95.75876 26557 ft 377 kts 228°
2026-05-04 13:10 33.93172 -95.77887 26084 ft 373 kts 228°
2026-05-04 13:11 33.91187 -95.79878 25630 ft 370 kts 228°
2026-05-04 13:11 33.89221 -95.81850 25189 ft 366 kts 228°
2026-05-04 13:11 33.87275 -95.83797 24749 ft 363 kts 227°
2026-05-04 13:11 33.85338 -95.85735 24321 ft 360 kts 227°
2026-05-04 13:12 33.83422 -95.87654 23891 ft 357 kts 227°
2026-05-04 13:12 33.81518 -95.89556 23436 ft 355 kts 227°
2026-05-04 13:12 33.79619 -95.91439 22957 ft 351 kts 226°
2026-05-04 13:12 33.77741 -95.93288 22531 ft 347 kts 226°
2026-05-04 13:13 33.75906 -95.95091 22100 ft 343 kts 226°
2026-05-04 13:13 33.74065 -95.96900 21678 ft 340 kts 226°
2026-05-04 13:13 33.72243 -95.98694 21251 ft 337 kts 226°
2026-05-04 13:13 33.70436 -96.00475 20811 ft 335 kts 226°
2026-05-04 13:14 33.68639 -96.02245 20382 ft 333 kts 226°
2026-05-04 13:14 33.66854 -96.04003 19956 ft 331 kts 226°
2026-05-04 13:14 33.65076 -96.05749 19531 ft 329 kts 226°
2026-05-04 13:14 33.63308 -96.07485 19119 ft 328 kts 226°
2026-05-04 13:15 33.61548 -96.09215 18686 ft 326 kts 226°
2026-05-04 13:15 33.59795 -96.10937 18288 ft 325 kts 226°
2026-05-04 13:15 33.58052 -96.12649 17863 ft 322 kts 226°
2026-05-04 13:15 33.56319 -96.14351 17397 ft 321 kts 226°
2026-05-04 13:16 33.54596 -96.16044 16989 ft 319 kts 226°
2026-05-04 13:16 33.52882 -96.17723 16592 ft 317 kts 226°
2026-05-04 13:16 33.51177 -96.19391 16202 ft 315 kts 226°
2026-05-04 13:16 33.49490 -96.21040 15819 ft 313 kts 226°
2026-05-04 13:17 33.47807 -96.22689 15424 ft 311 kts 226°
2026-05-04 13:17 33.46133 -96.24327 15032 ft 310 kts 226°
2026-05-04 13:17 33.44503 -96.25998 14639 ft 306 kts 232°
2026-05-04 13:17 33.43105 -96.27885 14268 ft 302 kts 235°
2026-05-04 13:18 33.41732 -96.29786 13886 ft 302 kts 235°
2026-05-04 13:18 33.40359 -96.31684 13474 ft 301 kts 235°
2026-05-04 13:18 33.38990 -96.33574 13081 ft 299 kts 234°
2026-05-04 13:18 33.37631 -96.35447 12696 ft 298 kts 234°
2026-05-04 13:19 33.36276 -96.37311 12317 ft 296 kts 234°
2026-05-04 13:19 33.34929 -96.39157 12012 ft 292 kts 234°
2026-05-04 13:19 33.33607 -96.40970 11762 ft 287 kts 235°
2026-05-04 13:19 33.32532 -96.42927 11509 ft 279 kts 249°
2026-05-04 13:20 33.31867 -96.45082 11270 ft 275 kts 256°
2026-05-04 13:20 33.31270 -96.47252 11024 ft 274 kts 256°
2026-05-04 13:20 33.30666 -96.49407 10782 ft 271 kts 255°
2026-05-04 13:20 33.30069 -96.51516 10528 ft 265 kts 255°
2026-05-04 13:21 33.29484 -96.53583 10328 ft 261 kts 255°
2026-05-04 13:21 33.28910 -96.55636 10065 ft 259 kts 258°
2026-05-04 13:21 33.28640 -96.57735 9808 ft 254 kts 270°
2026-05-04 13:21 33.28558 -96.59845 9489 ft 254 kts 269°
2026-05-04 13:22 33.28467 -96.61957 9186 ft 254 kts 269°
2026-05-04 13:22 33.28371 -96.64061 8881 ft 253 kts 269°
2026-05-04 13:22 33.28273 -96.66161 8577 ft 253 kts 268°
2026-05-04 13:22 33.28177 -96.68264 8276 ft 254 kts 268°
2026-05-04 13:23 33.28078 -96.70368 7970 ft 253 kts 268°
2026-05-04 13:23 33.27983 -96.72442 7672 ft 253 kts 267°
2026-05-04 13:23 33.27885 -96.74531 7379 ft 250 kts 266°
2026-05-04 13:23 33.27788 -96.76573 7129 ft 244 kts 266°
2026-05-04 13:24 33.27690 -96.78592 6801 ft 242 kts 266°
2026-05-04 13:24 33.27594 -96.80594 6501 ft 240 kts 265°
2026-05-04 13:24 33.27500 -96.82578 6203 ft 239 kts 265°
2026-05-04 13:25 33.26724 -96.86345 5984 ft 236 kts 242°
2026-05-04 13:25 33.25966 -96.88093 5978 ft 238 kts 242°
2026-05-04 13:25 33.25214 -96.89855 5972 ft 238 kts 243°
2026-05-04 13:25 33.24467 -96.91620 5974 ft 238 kts 243°
2026-05-04 13:26 33.23718 -96.93389 5976 ft 239 kts 243°
2026-05-04 13:26 33.22967 -96.95155 5976 ft 238 kts 243°
2026-05-04 13:26 33.22216 -96.96918 5980 ft 238 kts 243°
2026-05-04 13:26 33.21467 -96.98674 5979 ft 238 kts 243°
2026-05-04 13:27 33.20629 -97.00419 5972 ft 252 kts 232°
2026-05-04 13:27 33.19289 -97.01815 5810 ft 260 kts 210°
2026-05-04 13:27 33.17577 -97.02447 5536 ft 259 kts 186°
2026-05-04 13:27 33.15783 -97.02480 5218 ft 257 kts 183°
2026-05-04 13:28 33.14009 -97.02478 4893 ft 254 kts 184°
2026-05-04 13:28 33.12251 -97.02485 4560 ft 251 kts 184°
2026-05-04 13:28 33.10509 -97.02495 4225 ft 250 kts 184°
2026-05-04 13:28 33.08781 -97.02504 3898 ft 247 kts 185°
2026-05-04 13:29 33.07075 -97.02513 3566 ft 244 kts 184°
2026-05-04 13:29 33.05388 -97.02522 3256 ft 241 kts 184°
2026-05-04 13:29 33.03744 -97.02531 2950 ft 237 kts 184°
2026-05-04 13:29 33.02082 -97.02540 2647 ft 234 kts 184°
2026-05-04 13:30 33.00535 -97.02547 2357 ft 215 kts 183°
2026-05-04 13:30 32.99086 -97.02554 2076 ft 196 kts 183°
2026-05-04 13:30 32.97797 -97.02560 1842 ft 174 kts 184°
2026-05-04 13:30 32.96668 -97.02566 1633 ft 150 kts 183°
2026-05-04 13:31 32.95649 -97.02573 1421 ft 144 kts 182°
2026-05-04 13:31 32.94653 -97.02580 1228 ft 142 kts 181°
2026-05-04 13:31 32.94009 -97.02583 1115 ft 138 kts 181°
2026-05-04 13:31 32.93044 -97.02589 918 ft 139 kts 181°
2026-05-04 13:32 32.92095 -97.02590 755 ft 135 kts 182°
2026-05-04 13:32 32.91149 -97.02599 588 ft 131 kts 181°
2026-05-04 13:32 32.90353 -97.02607 577 ft 83 kts 180°
2026-05-04 13:32 32.89872 -97.02607 572 ft 64 kts 179°
2026-05-04 13:33 32.89514 -97.02608 571 ft 32 kts 182°
2026-05-04 13:33 32.89308 -97.02636 572 ft 28 kts 198°
2026-05-04 13:33 32.89162 -97.02719 574 ft 18 kts 211°
2026-05-04 13:33 32.89056 -97.02793 576 ft 17 kts 214°
2026-05-04 13:34 32.89036 -97.02866 574 ft 6 kts 266°
2026-05-04 13:34 32.89035 -97.02984 573 ft 23 kts 271°
2026-05-04 13:34 32.89038 -97.03100 571 ft 14 kts 271°
2026-05-04 13:34 32.89039 -97.03215 572 ft 12 kts 269°
2026-05-04 13:35 32.89039 -97.03278 578 ft 0 kts 270°
2026-05-04 13:35 32.89046 -97.03357 584 ft 4 kts 311°
2026-05-04 13:35 32.89087 -97.03370 584 ft 11 kts 358°
2026-05-04 13:36 32.89164 -97.03402 584 ft 11 kts 308°
2026-05-04 13:36 32.89149 -97.03470 584 ft 8 kts 240°
2026-05-04 13:36 32.89137 -97.03500 584 ft 1 kts 240°
2026-05-04 13:36 32.89128 -97.03521 584 ft 1 kts 245°